Location: Cerbedi�res
(48.2182°N, 1.4849°W)
Time: 11:07:20
(UTC+00:00)

SL-08 RB Rocket - Pass Details

Date: 03 March 2021
Orbit: 647 x 683 km, 97.8° (Epoch: 11 April)

Event Time Altitude Azimuth Distance (km) Brightness Sun altitude
Rises 18:50:53 0° 154° (SSE) 2,967 6.8 -10.4°
Reaches altitude 10° 18:53:06 10° 150° (SSE) 2,065 5.9 -10.7°
Maximum altitude 18:57:32 58° 72° (ENE) 771 3.7 -11.5°
Drops below altitude 10° 19:02:02 10° 354° (N) 2,103 6.4 -12.2°
Sets 19:04:18 0° 350° (N) 3,027 7.3 -12.6°
